Tianping-3B(01)

operational
NORAD ID: 61615 Int'l Des: 2024-189 Owner: ZJUNI Country: CN
LEOCIRCULARRETROGRADESSO

About Tianping-3B(01)

Description loading...

Live Position

Loading 3D Globe...

Upcoming Passes

Altitude History

Altitude vs Time

uPlot chart will show altitude changes over time

Two-Line Element Set

1 61615U 24189B 26062.18453425 .00003607 00000-0 28763-3 0 9996
2 61615 97.5340 85.6218 0002486 41.6218 318.5195 15.00931326 74543
Epoch: Mar 3, 2026 • Age: 21 hours

Current Status

Altitude 567.8 km
Velocity 7.58 km/s
Sub-Earth Point 23.82°N, 151.15°E
Launch Date Oct 22, 2024
Age 1.3 years
Type other

Technical Details

Classification Payload
Mass 200.00 kg
Dry Mass 200.00 kg
Total Mass 200.00 kg
Length 0.30 m
Diameter 0.30 m
Span 0.60 m
Shape Box
Manufacturer CASIC/ZJUNI
Bus Type TP-3
Phase Status In Orbit
Owner/State ZJUNI/CN

Large Constellations

Loading constellations...